Flag for Brazil Weather past 2 weeks in Florianópolis, Santa Catarina, Brazil

73 °F

Scattered showers. Partly sunny.

Feels Like: 73 °F
Forecast: 67 / 72 °F
Wind: 7 mph from East

Location: Florianopolis Aeroporto

Current Time: Nov 25, 2015 at 4:58:08 PM

Latest Report: Nov 25, 2015 at 4:00 PM

Visibility: N/A

Pressure: 29.92 "Hg

Humidity: 83%

Dew point: 68 °F

Location of FlorianópolisLocation

Historic Weather in Florianópolis — Graph


Florianópolis temperature yesterday

Maximum temperature yesterday: 72 °F (at 4:00 PM)
Minimum temperature yesterday: 66 °F (at 12:00 AM)
Average temperature yesterday: 68 °F

Past Weeks' High & Low Weather Summary

High86 °F (Nov 18, 1:00 PM)100% (Nov 17, 3:00 PM)30.04 "Hg (Nov 17, 3:00 PM)
Low64 °F (Nov 16, 5:00 AM)27% (Nov 17, 9:00 PM)29.45 "Hg (Nov 20, 5:00 AM)
Average72 °F80%29.83 "Hg
* Reported Nov 10 4:00 PM — Nov 25 4:00 PM, Florianópolis, Weather by CustomWeather, © 2015

Note: Actual official high and low records may vary slightly from our data, if they occured in-between our weather recording intervals... More about our weather records


Florianópolis weather history for previous 24 hours

Time TempWeatherWind HumidityBarometerVisibility
4:00 PM
Wed, Nov 25
73 °FScattered showers. Partly sunny.7 mph83%29.92 "HgN/A
3:00 PM72 °FScattered showers. Partly sunny.12 mph94%29.89 "Hg6 mi
2:00 PM70 °FRain. Fog.13 mph94%N/A2 mi
1:00 PM75 °FPartly sunny.15 mph78%29.89 "HgN/A
12:00 PM73 °FPartly sunny.9 mph89%29.92 "HgN/A
11:00 AM75 °FBroken clouds.9 mph83%29.89 "HgN/A
10:00 AM73 °FBroken clouds.8 mph89%29.89 "HgN/A
9:00 AM72 °FBroken clouds.6 mph94%29.89 "HgN/A
8:00 AM68 °FBroken clouds.7 mph100%29.89 "Hg6 mi
7:00 AM68 °FDrizzle. Broken clouds.7 mph94%29.86 "Hg3 mi
6:00 AM68 °FPassing clouds.7 mph94%29.83 "HgN/A
5:00 AM68 °FPassing clouds.9 mph94%29.83 "HgN/A
4:00 AM68 °FPassing clouds.6 mph100%29.83 "HgN/A
3:00 AM68 °FLight rain. Passing clouds.9 mph94%29.83 "Hg4 mi
2:00 AM66 °FLight rain. Fog.8 mph100%29.83 "Hg3 mi
1:00 AM66 °FLight rain. Passing clouds.10 mph100%29.86 "Hg6 mi
12:00 AM66 °FLight rain. Passing clouds.10 mph100%29.83 "Hg6 mi
11:00 PM
Tue, Nov 24
66 °FLight rain. Passing clouds.12 mph100%29.86 "Hg5 mi
10:00 PM66 °FLight rain. Passing clouds.12 mph100%29.83 "Hg4 mi
9:00 PM66 °FLight rain. Fog.13 mph100%29.80 "Hg3 mi
8:00 PM66 °FScattered showers. Fog.12 mph94%29.80 "Hg3 mi
7:00 PM70 °FScattered showers. Partly sunny.14 mph83%29.77 "HgN/A
6:00 PM70 °FPartly sunny.12 mph83%29.77 "HgN/A
5:00 PM72 °FPartly sunny.9 mph73%29.77 "HgN/A
4:00 PM72 °FPartly sunny.10 mph73%29.77 "HgN/A
Weather by CustomWeather, © 2015

See weather overviewHow to use our weather pages